Year,Month,Day,Hour,Minute,Value (Times are PST for insolation in W/m^2)
2022,06,13,00,00,0.00
2022,06,13,00,01,0.00
2022,06,13,00,02,0.00
2022,06,13,00,03,0.00
2022,06,13,00,04,0.00
2022,06,13,00,05,0.00
2022,06,13,00,06,0.00
2022,06,13,00,07,0.00
2022,06,13,00,08,0.00
2022,06,13,00,09,0.00
2022,06,13,00,10,0.00
2022,06,13,00,11,0.00
2022,06,13,00,12,0.00
2022,06,13,00,13,0.00
2022,06,13,00,14,0.00
2022,06,13,00,15,0.00
2022,06,13,00,16,0.00
2022,06,13,00,17,0.00
2022,06,13,00,18,0.00
2022,06,13,00,19,0.00
2022,06,13,00,20,0.00
2022,06,13,00,21,0.00
2022,06,13,00,22,0.00
2022,06,13,00,23,0.00
2022,06,13,00,24,0.00
2022,06,13,00,25,0.00
2022,06,13,00,26,0.00
2022,06,13,00,27,0.00
2022,06,13,00,28,0.00
2022,06,13,00,29,0.00
2022,06,13,00,30,0.00
2022,06,13,00,31,0.00
2022,06,13,00,32,0.00
2022,06,13,00,33,0.00
2022,06,13,00,34,0.00
2022,06,13,00,35,0.00
2022,06,13,00,36,0.00
2022,06,13,00,37,0.00
2022,06,13,00,38,0.00
2022,06,13,00,39,0.00
2022,06,13,00,40,0.00
2022,06,13,00,41,0.00
2022,06,13,00,42,0.00
2022,06,13,00,43,0.00
2022,06,13,00,44,0.00
2022,06,13,00,45,0.00
2022,06,13,00,46,0.00
2022,06,13,00,47,0.00
2022,06,13,00,48,0.00
2022,06,13,00,49,0.00
2022,06,13,00,50,0.00
2022,06,13,00,51,0.00
2022,06,13,00,52,0.00
2022,06,13,00,53,0.00
2022,06,13,00,54,0.00
2022,06,13,00,55,0.00
2022,06,13,00,56,0.00
2022,06,13,00,57,0.00
2022,06,13,00,58,0.00
2022,06,13,00,59,0.00
2022,06,13,01,00,0.00
2022,06,13,01,01,0.00
2022,06,13,01,02,0.00
2022,06,13,01,03,0.00
2022,06,13,01,04,0.00
2022,06,13,01,05,0.00
2022,06,13,01,06,0.00
2022,06,13,01,07,0.00
2022,06,13,01,08,0.00
2022,06,13,01,09,0.00
2022,06,13,01,10,0.00
2022,06,13,01,11,0.00
2022,06,13,01,12,0.00
2022,06,13,01,13,0.00
2022,06,13,01,14,0.00
2022,06,13,01,15,0.00
2022,06,13,01,16,0.00
2022,06,13,01,17,0.00
2022,06,13,01,18,0.00
2022,06,13,01,19,0.00
2022,06,13,01,20,0.00
2022,06,13,01,21,0.00
2022,06,13,01,22,0.00
2022,06,13,01,23,0.00
2022,06,13,01,24,0.00
2022,06,13,01,25,0.00
2022,06,13,01,26,0.00
2022,06,13,01,27,0.00
2022,06,13,01,28,0.00
2022,06,13,01,29,0.00
2022,06,13,01,30,0.00
2022,06,13,01,31,0.00
2022,06,13,01,32,0.00
2022,06,13,01,33,0.00
2022,06,13,01,34,0.00
2022,06,13,01,35,0.00
2022,06,13,01,36,0.00
2022,06,13,01,37,0.00
2022,06,13,01,38,0.00
2022,06,13,01,39,0.00
2022,06,13,01,40,0.00
2022,06,13,01,41,0.00
2022,06,13,01,42,0.00
2022,06,13,01,43,0.00
2022,06,13,01,44,0.00
2022,06,13,01,45,0.00
2022,06,13,01,46,0.00
2022,06,13,01,47,0.00
2022,06,13,01,48,0.00
2022,06,13,01,49,0.00
2022,06,13,01,50,0.00
2022,06,13,01,51,0.00
2022,06,13,01,52,0.00
2022,06,13,01,53,0.00
2022,06,13,01,54,0.00
2022,06,13,01,55,0.00
2022,06,13,01,56,0.00
2022,06,13,01,57,0.00
2022,06,13,01,58,0.00
2022,06,13,01,59,0.00
2022,06,13,02,00,0.00
2022,06,13,02,01,0.00
2022,06,13,02,02,0.00
2022,06,13,02,03,0.00
2022,06,13,02,04,0.00
2022,06,13,02,05,0.00
2022,06,13,02,06,0.00
2022,06,13,02,07,0.00
2022,06,13,02,08,0.00
2022,06,13,02,09,0.00
2022,06,13,02,10,0.00
2022,06,13,02,11,0.00
2022,06,13,02,12,0.00
2022,06,13,02,13,0.00
2022,06,13,02,14,0.00
2022,06,13,02,15,0.00
2022,06,13,02,16,0.00
2022,06,13,02,17,0.00
2022,06,13,02,18,0.00
2022,06,13,02,19,0.00
2022,06,13,02,20,0.00
2022,06,13,02,21,0.00
2022,06,13,02,22,0.00
2022,06,13,02,23,0.00
2022,06,13,02,24,0.00
2022,06,13,02,25,0.00
2022,06,13,02,26,0.00
2022,06,13,02,27,0.00
2022,06,13,02,28,0.00
2022,06,13,02,29,0.00
2022,06,13,02,30,0.00
2022,06,13,02,31,0.00
2022,06,13,02,32,0.00
2022,06,13,02,33,0.00
2022,06,13,02,34,0.00
2022,06,13,02,35,0.00
2022,06,13,02,36,0.00
2022,06,13,02,37,0.00
2022,06,13,02,38,0.00
2022,06,13,02,39,0.00
2022,06,13,02,40,0.00
2022,06,13,02,41,0.00
2022,06,13,02,42,0.00
2022,06,13,02,43,0.00
2022,06,13,02,44,0.00
2022,06,13,02,45,0.00
2022,06,13,02,46,0.00
2022,06,13,02,47,0.00
2022,06,13,02,48,0.00
2022,06,13,02,49,0.00
2022,06,13,02,50,0.00
2022,06,13,02,51,0.00
2022,06,13,02,52,0.00
2022,06,13,02,53,0.00
2022,06,13,02,54,0.00
2022,06,13,02,55,0.00
2022,06,13,02,56,0.00
2022,06,13,02,57,0.00
2022,06,13,02,58,0.00
2022,06,13,02,59,0.00
2022,06,13,03,00,0.00
2022,06,13,03,01,0.00
2022,06,13,03,02,0.00
2022,06,13,03,03,0.00
2022,06,13,03,04,0.00
2022,06,13,03,05,0.00
2022,06,13,03,06,0.00
2022,06,13,03,07,0.00
2022,06,13,03,08,0.00
2022,06,13,03,09,0.00
2022,06,13,03,10,0.00
2022,06,13,03,11,0.00
2022,06,13,03,12,0.00
2022,06,13,03,13,0.00
2022,06,13,03,14,0.00
2022,06,13,03,15,0.00
2022,06,13,03,16,0.00
2022,06,13,03,17,0.00
2022,06,13,03,18,0.00
2022,06,13,03,19,0.00
2022,06,13,03,20,0.00
2022,06,13,03,21,0.00
2022,06,13,03,22,0.00
2022,06,13,03,23,0.00
2022,06,13,03,24,0.00
2022,06,13,03,25,0.00
2022,06,13,03,26,0.00
2022,06,13,03,27,0.00
2022,06,13,03,28,0.00
2022,06,13,03,29,0.00
2022,06,13,03,30,0.00
2022,06,13,03,31,0.00
2022,06,13,03,32,0.00
2022,06,13,03,33,0.00
2022,06,13,03,34,0.00
2022,06,13,03,35,0.00
2022,06,13,03,36,0.00
2022,06,13,03,37,0.00
2022,06,13,03,38,0.00
2022,06,13,03,39,0.00
2022,06,13,03,40,0.00
2022,06,13,03,41,0.00
2022,06,13,03,42,0.00
2022,06,13,03,43,0.00
2022,06,13,03,44,0.00
2022,06,13,03,45,0.00
2022,06,13,03,46,0.00
2022,06,13,03,47,0.00
2022,06,13,03,48,0.00
2022,06,13,03,49,0.00
2022,06,13,03,50,0.00
2022,06,13,03,51,0.00
2022,06,13,03,52,0.00
2022,06,13,03,53,0.00
2022,06,13,03,54,0.00
2022,06,13,03,55,0.00
2022,06,13,03,56,0.00
2022,06,13,03,57,0.00
2022,06,13,03,58,0.00
2022,06,13,03,59,0.00
2022,06,13,04,00,0.00
2022,06,13,04,01,0.00
2022,06,13,04,02,0.00
2022,06,13,04,03,0.00
2022,06,13,04,04,0.00
2022,06,13,04,05,0.00
2022,06,13,04,06,0.00
2022,06,13,04,07,0.00
2022,06,13,04,08,0.00
2022,06,13,04,09,0.00
2022,06,13,04,10,0.00
2022,06,13,04,11,0.00
2022,06,13,04,12,0.00
2022,06,13,04,13,0.00
2022,06,13,04,14,0.00
2022,06,13,04,15,0.00
2022,06,13,04,16,0.00
2022,06,13,04,17,0.00
2022,06,13,04,18,0.00
2022,06,13,04,19,0.00
2022,06,13,04,20,0.00
2022,06,13,04,21,0.00
2022,06,13,04,22,0.00
2022,06,13,04,23,0.00
2022,06,13,04,24,0.00
2022,06,13,04,25,0.00
2022,06,13,04,26,0.00
2022,06,13,04,27,0.00
2022,06,13,04,28,0.00
2022,06,13,04,29,0.00
2022,06,13,04,30,0.00
2022,06,13,04,31,0.00
2022,06,13,04,32,0.00
2022,06,13,04,33,0.00
2022,06,13,04,34,0.00
2022,06,13,04,35,0.00
2022,06,13,04,36,0.00
2022,06,13,04,37,0.00
2022,06,13,04,38,0.00
2022,06,13,04,39,0.00
2022,06,13,04,40,0.00
2022,06,13,04,41,0.00
2022,06,13,04,42,0.00
2022,06,13,04,43,0.00
2022,06,13,04,44,0.00
2022,06,13,04,45,0.00
2022,06,13,04,46,0.00
2022,06,13,04,47,0.00
2022,06,13,04,48,0.00
2022,06,13,04,49,0.00
2022,06,13,04,50,0.00
2022,06,13,04,51,0.00
2022,06,13,04,52,0.00
2022,06,13,04,53,0.00
2022,06,13,04,54,0.00
2022,06,13,04,55,0.00
2022,06,13,04,56,0.00
2022,06,13,04,57,0.00
2022,06,13,04,58,0.00
2022,06,13,04,59,0.00
2022,06,13,05,00,0.00
2022,06,13,05,01,0.00
2022,06,13,05,02,0.00
2022,06,13,05,03,0.00
2022,06,13,05,04,0.00
2022,06,13,05,05,0.00
2022,06,13,05,06,0.00
2022,06,13,05,07,0.00
2022,06,13,05,08,0.00
2022,06,13,05,09,0.00
2022,06,13,05,10,0.00
2022,06,13,05,11,0.00
2022,06,13,05,12,0.00
2022,06,13,05,13,0.00
2022,06,13,05,14,0.00
2022,06,13,05,15,0.00
2022,06,13,05,16,0.00
2022,06,13,05,17,0.00
2022,06,13,05,18,0.00
2022,06,13,05,19,0.00
2022,06,13,05,20,0.00
2022,06,13,05,21,0.00
2022,06,13,05,22,0.00
2022,06,13,05,23,0.00
2022,06,13,05,24,0.00
2022,06,13,05,25,0.00
2022,06,13,05,26,4.50
2022,06,13,05,27,5.00
2022,06,13,05,28,5.00
2022,06,13,05,29,5.00
2022,06,13,05,30,5.00
2022,06,13,05,31,5.00
2022,06,13,05,32,5.00
2022,06,13,05,33,5.00
2022,06,13,05,34,5.00
2022,06,13,05,35,5.00
2022,06,13,05,36,5.00
2022,06,13,05,37,5.00
2022,06,13,05,38,5.00
2022,06,13,05,39,5.00
2022,06,13,05,40,6.80
2022,06,13,05,41,7.00
2022,06,13,05,42,7.00
2022,06,13,05,43,7.00
2022,06,13,05,44,7.00
2022,06,13,05,45,7.00
2022,06,13,05,46,8.60
2022,06,13,05,47,9.00
2022,06,13,05,48,9.00
2022,06,13,05,49,9.00
2022,06,13,05,50,9.00
2022,06,13,05,51,9.00
2022,06,13,05,52,10.30
2022,06,13,05,53,11.00
2022,06,13,05,54,11.90
2022,06,13,05,55,14.00
2022,06,13,05,56,14.50
2022,06,13,05,57,16.00
2022,06,13,05,58,16.00
2022,06,13,05,59,16.00
2022,06,13,06,00,16.00
2022,06,13,06,01,16.00
2022,06,13,06,02,16.00
2022,06,13,06,03,16.00
2022,06,13,06,04,16.80
2022,06,13,06,05,18.00
2022,06,13,06,06,18.60
2022,06,13,06,07,19.00
2022,06,13,06,08,19.00
2022,06,13,06,09,21.00
2022,06,13,06,10,21.50
2022,06,13,06,11,24.10
2022,06,13,06,12,27.00
2022,06,13,06,13,29.30
2022,06,13,06,14,31.50
2022,06,13,06,15,32.90
2022,06,13,06,16,35.00
2022,06,13,06,17,35.50
2022,06,13,06,18,37.80
2022,06,13,06,19,39.50
2022,06,13,06,20,41.30
2022,06,13,06,21,45.00
2022,06,13,06,22,48.60
2022,06,13,06,23,53.10
2022,06,13,06,24,54.00
2022,06,13,06,25,54.00
2022,06,13,06,26,54.00
2022,06,13,06,27,55.30
2022,06,13,06,28,59.00
2022,06,13,06,29,60.00
2022,06,13,06,30,62.00
2022,06,13,06,31,62.00
2022,06,13,06,32,62.00
2022,06,13,06,33,62.50
2022,06,13,06,34,65.40
2022,06,13,06,35,69.20
2022,06,13,06,36,75.20
2022,06,13,06,37,79.30
2022,06,13,06,38,81.50
2022,06,13,06,39,81.40
2022,06,13,06,40,77.40
2022,06,13,06,41,76.00
2022,06,13,06,42,76.00
2022,06,13,06,43,74.30
2022,06,13,06,44,70.20
2022,06,13,06,45,72.60
2022,06,13,06,46,74.70
2022,06,13,06,47,76.50
2022,06,13,06,48,79.50
2022,06,13,06,49,154.50
2022,06,13,06,50,166.60
2022,06,13,06,51,135.00
2022,06,13,06,52,210.00
2022,06,13,06,53,249.10
2022,06,13,06,54,260.10
2022,06,13,06,55,263.30
2022,06,13,06,56,264.80
2022,06,13,06,57,252.60
2022,06,13,06,58,271.40
2022,06,13,06,59,274.00
2022,06,13,07,00,273.20
2022,06,13,07,01,275.60
2022,06,13,07,02,280.30
2022,06,13,07,03,287.70
2022,06,13,07,04,297.70
2022,06,13,07,05,297.80
2022,06,13,07,06,291.50
2022,06,13,07,07,297.60
2022,06,13,07,08,290.00
2022,06,13,07,09,164.90
2022,06,13,07,10,87.00
2022,06,13,07,11,90.60
2022,06,13,07,12,99.80
2022,06,13,07,13,139.00
2022,06,13,07,14,177.10
2022,06,13,07,15,270.20
2022,06,13,07,16,329.70
2022,06,13,07,17,312.20
2022,06,13,07,18,301.00
2022,06,13,07,19,104.00
2022,06,13,07,20,137.40
2022,06,13,07,21,126.80
2022,06,13,07,22,128.80
2022,06,13,07,23,143.10
2022,06,13,07,24,214.90
2022,06,13,07,25,145.60
2022,06,13,07,26,187.70
2022,06,13,07,27,117.10
2022,06,13,07,28,107.10
2022,06,13,07,29,104.00
2022,06,13,07,30,104.00
2022,06,13,07,31,104.00
2022,06,13,07,32,105.90
2022,06,13,07,33,151.10
2022,06,13,07,34,124.80
2022,06,13,07,35,118.20
2022,06,13,07,36,94.80
2022,06,13,07,37,87.50
2022,06,13,07,38,100.20
2022,06,13,07,39,118.30
2022,06,13,07,40,132.70
2022,06,13,07,41,128.20
2022,06,13,07,42,167.70
2022,06,13,07,43,212.80
2022,06,13,07,44,286.40
2022,06,13,07,45,236.40
2022,06,13,07,46,218.00
2022,06,13,07,47,433.00
2022,06,13,07,48,429.30
2022,06,13,07,49,436.80
2022,06,13,07,50,439.60
2022,06,13,07,51,442.30
2022,06,13,07,52,415.60
2022,06,13,07,53,406.00
2022,06,13,07,54,311.40
2022,06,13,07,55,227.00
2022,06,13,07,56,327.20
2022,06,13,07,57,473.00
2022,06,13,07,58,271.50
2022,06,13,07,59,216.00
2022,06,13,08,00,237.00
2022,06,13,08,01,228.00
2022,06,13,08,02,178.00
2022,06,13,08,03,219.90
2022,06,13,08,04,159.80
2022,06,13,08,05,135.70
2022,06,13,08,06,133.50
2022,06,13,08,07,138.40
2022,06,13,08,08,159.00
2022,06,13,08,09,156.60
2022,06,13,08,10,167.00
2022,06,13,08,11,171.50
2022,06,13,08,12,176.00
2022,06,13,08,13,176.00
2022,06,13,08,14,176.00
2022,06,13,08,15,237.70
2022,06,13,08,16,243.00
2022,06,13,08,17,243.00
2022,06,13,08,18,243.00
2022,06,13,08,19,465.40
2022,06,13,08,20,583.60
2022,06,13,08,21,582.00
2022,06,13,08,22,383.00
2022,06,13,08,23,383.00
2022,06,13,08,24,371.60
2022,06,13,08,25,393.40
2022,06,13,08,26,429.00
2022,06,13,08,27,429.00
2022,06,13,08,28,429.00
2022,06,13,08,29,429.00
2022,06,13,08,30,459.90
2022,06,13,08,31,526.10
2022,06,13,08,32,489.00
2022,06,13,08,33,597.30
2022,06,13,08,34,680.40
2022,06,13,08,35,686.00
2022,06,13,08,36,241.30
2022,06,13,08,37,267.00
2022,06,13,08,38,285.90
2022,06,13,08,39,291.00
2022,06,13,08,40,287.90
2022,06,13,08,41,293.10
2022,06,13,08,42,300.30
2022,06,13,08,43,302.00
2022,06,13,08,44,419.50
2022,06,13,08,45,746.40
2022,06,13,08,46,701.60
2022,06,13,08,47,700.00
2022,06,13,08,48,700.00
2022,06,13,08,49,700.00
2022,06,13,08,50,490.00
2022,06,13,08,51,490.60
2022,06,13,08,52,475.00
2022,06,13,08,53,504.00
2022,06,13,08,54,533.00
2022,06,13,08,55,431.90
2022,06,13,08,56,448.30
2022,06,13,08,57,381.60
2022,06,13,08,58,385.00
2022,06,13,08,59,520.90
2022,06,13,09,00,754.00
2022,06,13,09,01,762.30
2022,06,13,09,02,766.00
2022,06,13,09,03,766.00
2022,06,13,09,04,372.10
2022,06,13,09,05,379.20
2022,06,13,09,06,381.30
2022,06,13,09,07,406.50
2022,06,13,09,08,411.00
2022,06,13,09,09,380.30
2022,06,13,09,10,373.00
2022,06,13,09,11,390.10
2022,06,13,09,12,452.00
2022,06,13,09,13,508.30
2022,06,13,09,14,478.70
2022,06,13,09,15,440.80
2022,06,13,09,16,418.10
2022,06,13,09,17,407.00
2022,06,13,09,18,410.00
2022,06,13,09,19,446.00
2022,06,13,09,20,480.10
2022,06,13,09,21,577.50
2022,06,13,09,22,617.00
2022,06,13,09,23,588.10
2022,06,13,09,24,578.00
2022,06,13,09,25,773.00
2022,06,13,09,26,814.50
2022,06,13,09,27,933.00
2022,06,13,09,28,772.80
2022,06,13,09,29,574.30
2022,06,13,09,30,476.80
2022,06,13,09,31,415.80
2022,06,13,09,32,397.00
2022,06,13,09,33,431.70
2022,06,13,09,34,531.00
2022,06,13,09,35,451.60
2022,06,13,09,36,351.20
2022,06,13,09,37,337.60
2022,06,13,09,38,329.80
2022,06,13,09,39,325.00
2022,06,13,09,40,324.50
2022,06,13,09,41,323.00
2022,06,13,09,42,324.00
2022,06,13,09,43,325.00
2022,06,13,09,44,325.00
2022,06,13,09,45,328.60
2022,06,13,09,46,326.20
2022,06,13,09,47,317.20
2022,06,13,09,48,307.80
2022,06,13,09,49,306.00
2022,06,13,09,50,306.00
2022,06,13,09,51,308.30
2022,06,13,09,52,310.80
2022,06,13,09,53,311.00
2022,06,13,09,54,310.50
2022,06,13,09,55,307.10
2022,06,13,09,56,305.90
2022,06,13,09,57,309.90
2022,06,13,09,58,314.10
2022,06,13,09,59,317.70
2022,06,13,10,00,317.70
2022,06,13,10,01,315.70
2022,06,13,10,02,314.30
2022,06,13,10,03,316.60
2022,06,13,10,04,324.50
2022,06,13,10,05,335.60
2022,06,13,10,06,344.20
2022,06,13,10,07,360.00
2022,06,13,10,08,363.20
2022,06,13,10,09,362.00
2022,06,13,10,10,345.50
2022,06,13,10,11,348.20
2022,06,13,10,12,350.00
2022,06,13,10,13,352.70
2022,06,13,10,14,359.30
2022,06,13,10,15,364.20
2022,06,13,10,16,375.40
2022,06,13,10,17,380.60
2022,06,13,10,18,410.20
2022,06,13,10,19,393.70
2022,06,13,10,20,369.30
2022,06,13,10,21,366.30
2022,06,13,10,22,371.80
2022,06,13,10,23,383.30
2022,06,13,10,24,392.10
2022,06,13,10,25,392.10
2022,06,13,10,26,373.70
2022,06,13,10,27,354.80
2022,06,13,10,28,338.00
2022,06,13,10,29,331.20
2022,06,13,10,30,330.20
2022,06,13,10,31,335.10
2022,06,13,10,32,343.00
2022,06,13,10,33,354.20
2022,06,13,10,34,361.40
2022,06,13,10,35,362.30
2022,06,13,10,36,364.50
2022,06,13,10,37,368.60
2022,06,13,10,38,378.00
2022,06,13,10,39,392.30
2022,06,13,10,40,404.00
2022,06,13,10,41,390.00
2022,06,13,10,42,379.70
2022,06,13,10,43,378.80
2022,06,13,10,44,383.60
2022,06,13,10,45,392.00
2022,06,13,10,46,397.90
2022,06,13,10,47,400.50
2022,06,13,10,48,407.20
2022,06,13,10,49,405.20
2022,06,13,10,50,398.20
2022,06,13,10,51,397.10
2022,06,13,10,52,405.70
2022,06,13,10,53,425.20
2022,06,13,10,54,449.90
2022,06,13,10,55,428.30
2022,06,13,10,56,416.40
2022,06,13,10,57,425.40
2022,06,13,10,58,436.20
2022,06,13,10,59,390.50
2022,06,13,11,00,385.70
2022,06,13,11,01,382.00
2022,06,13,11,02,378.40
2022,06,13,11,03,374.00
2022,06,13,11,04,375.00
2022,06,13,11,05,378.70
2022,06,13,11,06,381.40
2022,06,13,11,07,385.60
2022,06,13,11,08,389.30
2022,06,13,11,09,391.80
2022,06,13,11,10,394.30
2022,06,13,11,11,407.20
2022,06,13,11,12,428.70
2022,06,13,11,13,413.00
2022,06,13,11,14,413.00
2022,06,13,11,15,849.30
2022,06,13,11,16,967.80
2022,06,13,11,17,948.90
2022,06,13,11,18,960.00
2022,06,13,11,19,928.20
2022,06,13,11,20,868.10
2022,06,13,11,21,884.40
2022,06,13,11,22,900.00
2022,06,13,11,23,716.00
2022,06,13,11,24,712.10
2022,06,13,11,25,864.50
2022,06,13,11,26,861.80
2022,06,13,11,27,856.90
2022,06,13,11,28,852.10
2022,06,13,11,29,848.00
2022,06,13,11,30,846.10
2022,06,13,11,31,849.00
2022,06,13,11,32,850.00
2022,06,13,11,33,857.10
2022,06,13,11,34,861.40
2022,06,13,11,35,860.00
2022,06,13,11,36,865.40
2022,06,13,11,37,874.10
2022,06,13,11,38,877.70
2022,06,13,11,39,882.00
2022,06,13,11,40,882.70
2022,06,13,11,41,882.50
2022,06,13,11,42,881.00
2022,06,13,11,43,883.20
2022,06,13,11,44,888.30
2022,06,13,11,45,899.30
2022,06,13,11,46,907.50
2022,06,13,11,47,908.30
2022,06,13,11,48,911.30
2022,06,13,11,49,916.00
2022,06,13,11,50,916.00
2022,06,13,11,51,918.70
2022,06,13,11,52,912.30
2022,06,13,11,53,913.50
2022,06,13,11,54,909.20
2022,06,13,11,55,901.40
2022,06,13,11,56,893.60
2022,06,13,11,57,894.80
2022,06,13,11,58,895.10
2022,06,13,11,59,892.80
2022,06,13,12,00,891.50
2022,06,13,12,01,892.30
2022,06,13,12,02,886.50
2022,06,13,12,03,878.90
2022,06,13,12,04,877.00
2022,06,13,12,05,872.60
2022,06,13,12,06,872.00
2022,06,13,12,07,872.80
2022,06,13,12,08,877.20
2022,06,13,12,09,884.90
2022,06,13,12,10,891.40
2022,06,13,12,11,899.70
2022,06,13,12,12,903.70
2022,06,13,12,13,895.00
2022,06,13,12,14,892.10
2022,06,13,12,15,884.70
2022,06,13,12,16,888.50
2022,06,13,12,17,894.10
2022,06,13,12,18,895.30
2022,06,13,12,19,895.00
2022,06,13,12,20,891.00
2022,06,13,12,21,890.20
2022,06,13,12,22,886.50
2022,06,13,12,23,882.40
2022,06,13,12,24,876.50
2022,06,13,12,25,874.00
2022,06,13,12,26,872.20
2022,06,13,12,27,873.40
2022,06,13,12,28,869.50
2022,06,13,12,29,867.60
2022,06,13,12,30,866.00
2022,06,13,12,31,865.00
2022,06,13,12,32,863.40
2022,06,13,12,33,864.80
2022,06,13,12,34,865.60
2022,06,13,12,35,871.20
2022,06,13,12,36,876.50
2022,06,13,12,37,880.00
2022,06,13,12,38,882.90
2022,06,13,12,39,885.50
2022,06,13,12,40,890.30
2022,06,13,12,41,896.60
2022,06,13,12,42,900.00
2022,06,13,12,43,900.00
2022,06,13,12,44,900.00
2022,06,13,12,45,905.70
2022,06,13,12,46,910.50
2022,06,13,12,47,918.10
2022,06,13,12,48,913.70
2022,06,13,12,49,912.00
2022,06,13,12,50,910.80
2022,06,13,12,51,910.60
2022,06,13,12,52,908.80
2022,06,13,12,53,904.70
2022,06,13,12,54,904.00
2022,06,13,12,55,904.30
2022,06,13,12,56,898.70
2022,06,13,12,57,894.20
2022,06,13,12,58,892.00
2022,06,13,12,59,891.00
2022,06,13,13,00,894.80
2022,06,13,13,01,891.80
2022,06,13,13,02,898.00
2022,06,13,13,03,899.60
2022,06,13,13,04,900.50
2022,06,13,13,05,890.30
2022,06,13,13,06,887.30
2022,06,13,13,07,884.90
2022,06,13,13,08,885.80
2022,06,13,13,09,886.00
2022,06,13,13,10,886.50
2022,06,13,13,11,888.40
2022,06,13,13,12,889.00
2022,06,13,13,13,889.00
2022,06,13,13,14,898.60
2022,06,13,13,15,906.40
2022,06,13,13,16,899.60
2022,06,13,13,17,895.80
2022,06,13,13,18,894.30
2022,06,13,13,19,894.00
2022,06,13,13,20,895.60
2022,06,13,13,21,893.80
2022,06,13,13,22,893.00
2022,06,13,13,23,895.60
2022,06,13,13,24,872.00
2022,06,13,13,25,846.40
2022,06,13,13,26,898.00
2022,06,13,13,27,889.70
2022,06,13,13,28,883.80
2022,06,13,13,29,883.70
2022,06,13,13,30,881.30
2022,06,13,13,31,883.20
2022,06,13,13,32,878.80
2022,06,13,13,33,873.50
2022,06,13,13,34,870.70
2022,06,13,13,35,871.50
2022,06,13,13,36,868.70
2022,06,13,13,37,872.00
2022,06,13,13,38,873.80
2022,06,13,13,39,878.20
2022,06,13,13,40,875.40
2022,06,13,13,41,871.40
2022,06,13,13,42,868.50
2022,06,13,13,43,869.70
2022,06,13,13,44,872.00
2022,06,13,13,45,872.50
2022,06,13,13,46,874.00
2022,06,13,13,47,873.00
2022,06,13,13,48,872.00
2022,06,13,13,49,870.50
2022,06,13,13,50,871.80
2022,06,13,13,51,868.00
2022,06,13,13,52,868.50
2022,06,13,13,53,870.00
2022,06,13,13,54,868.60
2022,06,13,13,55,867.00
2022,06,13,13,56,865.50
2022,06,13,13,57,869.30
2022,06,13,13,58,870.00
2022,06,13,13,59,870.00
2022,06,13,14,00,868.90
2022,06,13,14,01,867.00
2022,06,13,14,02,865.80
2022,06,13,14,03,861.90
2022,06,13,14,04,861.10
2022,06,13,14,05,862.70
2022,06,13,14,06,860.20
2022,06,13,14,07,859.20
2022,06,13,14,08,859.40
2022,06,13,14,09,858.00
2022,06,13,14,10,858.00
2022,06,13,14,11,858.00
2022,06,13,14,12,856.00
2022,06,13,14,13,857.00
2022,06,13,14,14,858.40
2022,06,13,14,15,856.00
2022,06,13,14,16,854.10
2022,06,13,14,17,851.40
2022,06,13,14,18,847.40
2022,06,13,14,19,843.80
2022,06,13,14,20,842.00
2022,06,13,14,21,839.40
2022,06,13,14,22,836.60
2022,06,13,14,23,836.10
2022,06,13,14,24,835.00
2022,06,13,14,25,836.70
2022,06,13,14,26,837.60
2022,06,13,14,27,842.00
2022,06,13,14,28,841.20
2022,06,13,14,29,839.00
2022,06,13,14,30,836.10
2022,06,13,14,31,833.50
2022,06,13,14,32,831.20
2022,06,13,14,33,828.30
2022,06,13,14,34,830.00
2022,06,13,14,35,827.80
2022,06,13,14,36,824.00
2022,06,13,14,37,822.10
2022,06,13,14,38,821.00
2022,06,13,14,39,822.80
2022,06,13,14,40,821.00
2022,06,13,14,41,820.50
2022,06,13,14,42,817.90
2022,06,13,14,43,813.00
2022,06,13,14,44,808.10
2022,06,13,14,45,801.80
2022,06,13,14,46,798.30
2022,06,13,14,47,801.30
2022,06,13,14,48,796.00
2022,06,13,14,49,794.80
2022,06,13,14,50,790.40
2022,06,13,14,51,788.00
2022,06,13,14,52,788.80
2022,06,13,14,53,782.80
2022,06,13,14,54,780.60
2022,06,13,14,55,785.00
2022,06,13,14,56,789.10
2022,06,13,14,57,790.00
2022,06,13,14,58,788.40
2022,06,13,14,59,785.00
2022,06,13,15,00,787.40
2022,06,13,15,01,787.80
2022,06,13,15,02,786.00
2022,06,13,15,03,785.20
2022,06,13,15,04,785.00
2022,06,13,15,05,786.00
2022,06,13,15,06,787.50
2022,06,13,15,07,790.70
2022,06,13,15,08,753.10
2022,06,13,15,09,785.00
2022,06,13,15,10,781.30
2022,06,13,15,11,776.60
2022,06,13,15,12,771.20
2022,06,13,15,13,767.00
2022,06,13,15,14,779.70
2022,06,13,15,15,778.60
2022,06,13,15,16,772.80
2022,06,13,15,17,764.10
2022,06,13,15,18,761.00
2022,06,13,15,19,755.50
2022,06,13,15,20,749.80
2022,06,13,15,21,745.60
2022,06,13,15,22,741.30
2022,06,13,15,23,736.00
2022,06,13,15,24,728.30
2022,06,13,15,25,722.60
2022,06,13,15,26,728.40
2022,06,13,15,27,735.50
2022,06,13,15,28,737.90
2022,06,13,15,29,733.00
2022,06,13,15,30,733.40
2022,06,13,15,31,735.70
2022,06,13,15,32,741.80
2022,06,13,15,33,747.00
2022,06,13,15,34,747.00
2022,06,13,15,35,744.20
2022,06,13,15,36,739.30
2022,06,13,15,37,735.80
2022,06,13,15,38,738.00
2022,06,13,15,39,735.40
2022,06,13,15,40,731.70
2022,06,13,15,41,734.00
2022,06,13,15,42,733.20
2022,06,13,15,43,733.00
2022,06,13,15,44,733.00
2022,06,13,15,45,733.00
2022,06,13,15,46,733.00
2022,06,13,15,47,733.00
2022,06,13,15,48,365.60
2022,06,13,15,49,236.10
2022,06,13,15,50,224.00
2022,06,13,15,51,214.80
2022,06,13,15,52,211.00
2022,06,13,15,53,208.90
2022,06,13,15,54,205.20
2022,06,13,15,55,205.50
2022,06,13,15,56,208.90
2022,06,13,15,57,219.70
2022,06,13,15,58,244.10
2022,06,13,15,59,246.70
2022,06,13,16,00,238.00
2022,06,13,16,01,243.40
2022,06,13,16,02,256.50
2022,06,13,16,03,284.00
2022,06,13,16,04,268.00
2022,06,13,16,05,278.20
2022,06,13,16,06,311.70
2022,06,13,16,07,315.50
2022,06,13,16,08,277.10
2022,06,13,16,09,340.50
2022,06,13,16,10,327.70
2022,06,13,16,11,328.20
2022,06,13,16,12,374.10
2022,06,13,16,13,406.70
2022,06,13,16,14,413.00
2022,06,13,16,15,554.70
2022,06,13,16,16,641.00
2022,06,13,16,17,663.30
2022,06,13,16,18,679.10
2022,06,13,16,19,680.50
2022,06,13,16,20,683.50
2022,06,13,16,21,687.60
2022,06,13,16,22,696.70
2022,06,13,16,23,701.00
2022,06,13,16,24,413.90
2022,06,13,16,25,421.00
2022,06,13,16,26,681.60
2022,06,13,16,27,685.30
2022,06,13,16,28,665.50
2022,06,13,16,29,662.10
2022,06,13,16,30,649.20
2022,06,13,16,31,643.00
2022,06,13,16,32,358.00
2022,06,13,16,33,292.20
2022,06,13,16,34,300.80
2022,06,13,16,35,355.70
2022,06,13,16,36,387.00
2022,06,13,16,37,579.90
2022,06,13,16,38,639.40
2022,06,13,16,39,622.60
2022,06,13,16,40,574.00
2022,06,13,16,41,622.40
2022,06,13,16,42,601.70
2022,06,13,16,43,583.70
2022,06,13,16,44,566.30
2022,06,13,16,45,557.70
2022,06,13,16,46,548.90
2022,06,13,16,47,539.00
2022,06,13,16,48,531.60
2022,06,13,16,49,524.00
2022,06,13,16,50,371.00
2022,06,13,16,51,272.00
2022,06,13,16,52,477.30
2022,06,13,16,53,518.70
2022,06,13,16,54,516.00
2022,06,13,16,55,513.00
2022,06,13,16,56,511.50
2022,06,13,16,57,508.70
2022,06,13,16,58,502.80
2022,06,13,16,59,493.30
2022,06,13,17,00,484.40
2022,06,13,17,01,478.70
2022,06,13,17,02,474.20
2022,06,13,17,03,472.00
2022,06,13,17,04,469.10
2022,06,13,17,05,466.50
2022,06,13,17,06,466.00
2022,06,13,17,07,463.80